STARLINK-33752, 63580

Orbit data source: Space-Track

STARLINK-33752, 63580 is a payload satellite owned by SpaceX/Seattle (US) in LEO that was launched on Mon, 14 Apr 2025 UTC via an FALCON 9 launch vehicle from the Air Force Eastern Test Range (AFETR). Payload-class satellites include a variety of spacecraft equipped with specific instruments for various scientific and technological missions. These include communications satellites like Starlink; space stations such as the ISS; scientific satellites like the Hubble; Earth observation satellites from companies like Planet Labs, Umbra, and HawkEye 360; GPS; miniature CubeSats for education and research; and military/defense satellites.

Loading next visibility...
Identifier
63580, 2025-076M
Orbit
LEO
Country
Flag of USUS
Related business
Manufacturer
SpaceX/Seattle
Mission
Operational Commercial Communications
Bus & Motor
STARLINK V2MO, Unknown motor
Mass
575 kg wet, ~530 kg dry
Launch date (UTC)
2025-04-14 (1 year ago)
Launch vehicle
FALCON 9
Launch site
Air Force Eastern Test Range (AFETR)
Object type
Payload
Rocket body
Debris
Shape & HBR
Box + 2 Pan, 17.7 m
Radar Cross Section
36.964 m², Large (>1 m²)

Expand to show TLE details & history
Last TLE update: 22 hours ago

TLE from 22 hours ago
0 STARLINK-33752
1 63580U 25076M   26149.60256307  .00027209  00000-0  99433-3 0  9994
2 63580  43.0024 224.8606 0001491 265.1162  94.9519 15.27589962 64206
Epoch: 2026-05-29T14:27Z
TLE epoch observation values (Epoch: 2026-05-29T14:27:41.449Z)
Latitude
-0.00004°
Longitude
120.80727°
Altitude
482.883 km
Speed
7.626 km/s
True Right ascension
14h 59m 26s
True Declination
0° 00' 00"
Sunlit
Object was in full shadow at epoch
Visualization orbit readout
Latitude
Unknown
Longitude
Unknown
Altitude
Unknown
Speed
Unknown
Apparent Right ascension
Unknown
Apparent Declination
Unknown
Sunlit
N/A
Visualization observer readout
Local Sidereal Time
21:50:26
Azimuth
Unknown
Elevation
Unknown
Doppler factor
Unknown
Orbital elements
Apogee altitude
485.987 km
Perigee altitude
483.941 km
Semi-major axis
6,863.101 km
Eccentricity
0.00015
Inclination
43.0024°
RAAN
224.8606°
Arg. of periapsis
265.1162°
True anomaly
94.96892°
Mean anomaly
94.9519°
Eccentric anomaly
94.96041°
Mean motion
3.81736 °/min
Orbital period
94.31 mins
BSTAR
0.00099433
Loading maneuver chart data...
Computing Atmospheric mass density...
Loading historical data...
Loading historical data...
Loading historical data...
Loading historical data...
Loading historical data...
Loading historical data...
Loading historical data...

Documentation

Showing up to 5 results
|